#timestamp,LO_Frequency,Hit 
1505408415.6,286046998.3,N
1505408435.4,286047007.5,N
1505408455.2,286047010.7,N
1505408475.0,286047008.3,N
1505408476.0,286047008.3,N
1505408495.8,286047018.3,N
1505408515.6,286047021.7,N
1505408535.4,286047023.8,N
1505408555.3,286047025.7,N
1505408575.1,286047025.4,N
1505408595.8,286047026.1,N
1505408615.7,286047028.1,N
1505408635.5,286047024.7,N
1505408655.3,286047014.7,N
1505408675.2,286047014.9,N
1505408695.9,286047010.9,N
1505408715.7,286047012.6,N
1505408735.6,286047022.6,N
1505408755.4,286047021.7,N
1505408775.2,286047018.8,N
1505408795.0,286047020.4,N
1505408796.0,286047020.4,N
1505408815.8,286047019.8,N
1505408835.6,286047023.8,N
1505408855.4,286047024.8,N
1505408875.3,286047022.4,N
1505408895.1,286047024.7,N
1505408915.9,286047026.8,P
1505408935.7,286047011.7,N
1505408955.5,286047013.9,N
1505408975.3,286047009.3,N
1505408995.2,286047006.6,N
1505409015.0,286047000.9,N
1505409015.9,286047000.9,N
1505409035.7,286046996.4,N
1505409055.6,286046994.4,N
1505409075.4,286046992.1,N
1505409095.2,286046989.3,N
1505409115.1,286046987.2,N
1505409116.0,286046987.2,N
1505409135.8,286046993.3,N
1505409155.6,286046998.1,N
1505409175.5,286046995.9,N
1505409195.3,286046990.8,N
1505409215.1,286046992.5,N
1505409235.9,286046993.3,N
1505409255.7,286046991.8,N
1505409275.5,286046992.9,N
1505409295.3,286046991.9,N
1505409315.2,286046991.4,N
1505409335.0,286046990.1,N
1505409335.9,286046990.1,N
1505409355.7,286046987.3,N
1505409375.6,286046990.7,N
1505409395.4,286047000.0,N
1505409415.2,286047008.8,N
1505409435.1,286047008.4,N
1505409436.0,286047008.4,N
1505409455.8,286047008.8,N
1505409475.6,286047001.3,N
1505409495.5,286046999.4,N
1505409515.3,286046996.9,N
1505409535.1,286046999.4,N
1505409555.9,286047001.0,N
1505409575.7,286047001.7,N
1505409595.5,286047000.7,N
1505409615.3,286047006.1,N
1505409635.2,286047002.2,N
1505409655.0,286047003.9,N
1505409655.9,286047003.9,N
1505409675.7,286047003.9,N
1505409695.6,286047007.4,N
1505409715.4,286047002.0,N
1505409735.2,286046998.4,N
1505409755.1,286047000.5,N
1505409756.0,286047000.5,N
1505409775.8,286047002.8,N
1505409795.6,286047001.7,N
1505409815.5,286047003.0,N
1505409835.3,286047010.1,N
1505409855.1,286047010.3,N
1505409875.9,286047001.9,N
1505409895.7,286047004.6,N
1505409915.5,286047014.1,P
1505409935.4,286047016.5,N
1505409955.2,286047018.1,P
1505409975.0,286047010.9,N
1505409975.9,286047010.9,N
1505409995.8,286047007.2,N
1505410015.6,286047003.5,N
1505410035.4,286047005.5,N
1505410055.3,286047008.6,N
1505410075.1,286047012.5,N
1505410076.0,286047012.5,N
1505410095.8,286047025.5,P
1505410115.7,286047025.0,P
1505410135.5,286047019.8,N
1505410155.3,286047019.2,P
1505410175.2,286047003.6,P
1505410195.0,286046996.9,N
1505410195.9,286046996.9,N
1505410215.7,286046992.9,N
1505410235.6,286046997.1,N
1505410255.4,286046991.7,N
1505410275.2,286046997.5,N
1505410295.1,286046988.5,N
1505410296.0,286046988.5,N
1505410315.8,286046987.4,N
1505410335.6,286046984.0,N
1505410355.5,286046983.9,N
1505410375.3,286046985.6,N
1505410395.1,286046987.9,N
1505410415.9,286046986.6,N
1505410435.7,286046982.5,N
1505410455.5,286046982.2,N
1505410475.3,286046984.9,N
1505410495.2,286046985.0,N
1505410515.0,286046982.8,N
1505410515.9,286046982.8,N
1505410535.7,286046985.6,N
1505410555.6,286046984.2,N
1505410575.4,286046982.9,N
1505410595.2,286046974.4,N
1505410615.1,286046970.4,N
1505410616.0,286046970.4,N
1505410635.8,286046973.0,N
1505410655.6,286046977.4,N
1505410675.5,286046985.4,N
1505410695.3,286046987.9,N
1505410715.1,286046984.8,N
1505410735.9,286046985.2,N
1505410755.7,286046986.0,N
1505410775.5,286046989.9,N
1505410795.4,286046987.7,N
1505410815.2,286046988.3,N
1505410835.0,286046986.8,N
1505410835.9,286046986.8,N
1505410855.7,286046992.1,N
1505410875.6,286046992.2,N
1505410895.4,286046993.8,N
1505410915.2,286046996.2,N
1505410935.1,286046996.9,N
1505410936.0,286046996.9,N
1505410955.8,286046994.5,N
1505410975.6,286046988.7,N
1505410995.5,286046989.1,N
1505411015.3,286046984.9,N
1505411035.1,286046979.3,N
1505411055.9,286046979.0,N
1505411075.7,286046982.0,N
1505411095.5,286046984.0,N
1505411115.4,286046985.7,N
1505411135.2,286046986.7,N
1505411155.0,286046988.2,N
1505411155.9,286046988.2,N
1505411175.8,286046989.8,N
1505411195.6,286046983.6,P
1505411215.4,286046991.7,P
1505411235.3,286046995.6,N
1505411255.1,286046999.5,N
1505411256.0,286046999.5,N
1505411275.8,286046997.7,N
1505411295.7,286046993.3,N
1505411315.5,286046995.6,N
1505411335.3,286046996.4,N
1505411355.2,286046997.8,N
1505411375.9,286046994.8,N
1505411395.7,286046993.6,N
1505411415.5,286046997.6,N
1505411435.4,286046995.9,N
1505411455.2,286046993.7,N
1505411475.0,286046996.6,N
1505411475.9,286046996.6,N
1505411495.8,286047002.7,N
1505411515.6,286047003.6,N
1505411535.4,286047005.8,N
1505411555.3,286047004.7,N
1505411575.1,286047001.0,N
1505411576.0,286047001.0,N
1505411595.8,286046990.7,N
1505411615.7,286046994.4,N
1505411635.5,286046996.2,N
1505411655.3,286046995.3,N
1505411675.1,286046999.1,N
1505411695.9,286047002.5,N
1505411715.7,286047004.3,N
1505411735.5,286047000.4,N
1505411755.4,286046998.3,N
1505411775.2,286046999.1,N
1505411795.0,286046996.6,N
1505411795.9,286046996.6,N
1505411815.8,286046997.3,N
1505411835.6,286046997.9,N
1505411855.4,286046999.1,N
1505411875.3,286046999.1,N
1505411895.1,286046992.4,N
1505411896.0,286046992.4,N
1505411915.8,286046992.4,N
1505411935.7,286046990.0,N
1505411955.5,286046981.0,P
1505411975.3,286046982.7,N
1505411995.2,286046985.0,N
